Regional Weather Roundup
Issued by NWS Goodland, KS

Home | Current Version | Previous Version | Graphics & Text | Print | Product List | Glossary On
Versions: 1 2 3 4 5 6 7 8 9 10 11 12 13 14 15 16 17 18 19 20 21 22 23 24 25 26 27 28 29 30 31 32 33 34 35 36 37 38 39 40 41 42 43 44 45 46 47 48 49 50
000
ASUS43 KGLD 172308
RWRGLD

GOODLAND FORECAST AREA HOURLY WEATHER ROUNDUP
NATIONAL WEATHER SERVICE GOODLAND KS
500 PM MDT THU APR 17 2014

...OFFICIAL OBSERVATIONS...

CITY           SKY/WX    TMP DP  RH WIND       PRES   REMARKS
GOODLAND KS    CLOUDY    53  37  54 S21G26    30.15F
HILL CITY KS   SUNNY     58  30  34 S10       30.19F
IMPERIAL NEB   PTSUNNY   57  36  45 S21G28    30.11F
MCCOOK NEB     CLOUDY    55  34  45 S12       30.17F
AKRON CO       MOSUNNY   60  29  30 S20       30.02F
BURLINGTON CO  PTSUNNY   53  37  54 S22G31    30.13F
LIMON CO       SUNNY     56  30  37 S18G30    30.08F
$$

...UNOFFICIAL OBSERVATIONS...

CITY           SKY/WX    TMP DP  RH WIND       PRES   REMARKS
COLBY KS       PTSUNNY   57  37  47 S10G16    30.17S
GOVE KS          N/A     56  32  40 S9          N/A
LENORA KS        N/A     55  32  41 SE10        N/A
LEOTI KS         N/A     53  32  45 S7          N/A
NORTON KS      SUNNY     54  30  40 S7        30.18S
OBERLIN KS     PTSUNNY   57  32  38 S13       30.17S
SHARON SPRINGS   N/A     54  40  59 S14         N/A
ST FRANCIS KS  MOSUNNY   55  34  44 S21G28    30.12F
WAKEENEY KS      N/A     58  28  32 MISG        N/A
TRENTON NEB      N/A     56  32  40 S16         N/A
KIT CARSON CO    N/A     52  40  63 MISG        N/A
WRAY CO        FAIR      61  36  39 S22G29    30.07F
$$



USA.gov is the U.S. government's official web portal to all federal, state and local government web resources and services.